Flag for Portugal Weather past 2 weeks in Leiria, Portugal

Now
43 °F

Fog.


Feels Like: 43 °F
Forecast: 45 / 57 °F
Wind: 1 mph from North

Location: Monte Real Mil.

Current Time: Dec 27, 2014 at 1:12:20 AM

Latest Report: Dec 27, 2014 at 12:00 AM


Visibility: 1 mi

Pressure: 30.51 "Hg

Humidity: 93%

Dew point: 41 °F

Location of LeiriaLocation

Historic Weather in Leiria — Graph

°F

Leiria temperature yesterday

Maximum temperature yesterday: 59 °F (at 2:00 PM)
Minimum temperature yesterday: 36 °F (at 5:00 AM)
Average temperature yesterday: 46 °F

Past Weeks' High & Low Weather Summary

 TemperatureHumidityPressure
High63 °F (Dec 24, 2:00 PM)100% (Dec 12, 12:00 AM)30.57 "Hg (Dec 12, 12:00 AM)
Low30 °F (Dec 20, 7:00 AM)47% (Dec 25, 1:00 PM)29.68 "Hg (Dec 13, 4:00 PM)
Average49 °F86%30.34 "Hg
* Reported Midnight between Dec 11 and Dec 12 — Midnight between Dec 26 and Dec 27, Leiria, Weather by CustomWeather, © 2014

Note: Actual official high and low records may vary slightly from our data, if they occured in-between our weather recording intervals... More about our weather records

Advertising

Leiria weather history for previous 24 hours

 ConditionsComfort  
Time TempWeatherWind HumidityBarometerVisibility
12:00 AM
Dec 27
43 °FFog.1 mph93%30.51 "Hg1 mi
11:00 PM
Dec 26
43 °FFog.1 mph93%30.51 "Hg1 mi
10:00 PM43 °FFog.1 mph100%30.48 "Hg2 mi
9:00 PM45 °FFog.1 mph93%30.48 "Hg2 mi
8:00 PM46 °FClear.2 mph93%30.48 "Hg5 mi
7:00 PM48 °FClear.3 mph94%30.48 "Hg10 mi
6:00 PM52 °FSunny.7 mph88%30.48 "Hg10 mi
5:00 PM55 °FSunny.8 mph77%30.48 "Hg10 mi
4:00 PM57 °FSunny.10 mph67%30.48 "Hg10 mi
3:00 PM59 °FPassing clouds.8 mph59%30.45 "HgN/A
2:00 PM59 °FPassing clouds.6 mph59%30.48 "HgN/A
1:00 PM55 °FPassing clouds.5 mph72%30.51 "HgN/A
12:00 PM54 °FSunny.6 mph77%30.54 "Hg10 mi
11:00 AM48 °FSunny.1 mph87%30.54 "Hg10 mi
10:00 AM41 °FClear.1 mph93%30.54 "Hg5 mi
9:00 AM37 °FClear.1 mph93%30.51 "Hg4 mi
7:00 AM36 °FFog.1 mph93%30.51 "Hg3 mi
5:00 AM36 °FFog.1 mph100%30.51 "Hg3 mi
4:00 AM37 °FFog.2 mph93%30.51 "Hg3 mi
3:00 AM37 °FFog.1 mph93%30.51 "Hg3 mi
2:00 AM37 °FFog.1 mph100%30.51 "Hg3 mi
1:00 AM39 °FFog.2 mph93%30.54 "Hg2 mi
Weather by CustomWeather, © 2014

See weather overviewHow to use our weather pages